Hourly Data Report for October 05, 2017

All times are specified in Local Standard Time (LST). Add 1 hour to adjust for Daylight Saving Time where and when it is observed.

MOOSE CREEK WELLS
ONTARIO

45°15'04.000" N
74°57'46.000" W
84.50 m
6105397
71635
TCK

Download Data

Hourly Data (October 2017)
Hourly Data Report for October 5, 2017
Temp Definition
°C
Dew Point Temp Definition
°C
Rel Hum Definition
%
Wind Dir Definition
10's deg

Wind Spd Definition
km/h
Visibility Definition
km
Stn Press Definition
kPa
Hmdx Definition


Wind Chill Definition


Weather Definition


TIME
00:00 14.5 13.4 93 26 6   100.65     LegendNANA
01:00 13.9 12.9 94 26 8   100.71     LegendNANA
02:00 13.1 12.4 96 25 8   100.73     LegendNANA
03:00 12.1 11.5 97 25 3   100.71     LegendNANA
04:00 10.6 10.3 98 21 2   100.72     LegendNANA
05:00 9.7 9.6 99 16 5   100.73     LegendNANA
06:00 9.5 9.5 100 16 6   100.76     LegendNANA
07:00 10.9 10.8 100 20 5   100.79     LegendNANA
08:00 12.6 11.4 93 23 7   100.79     LegendNANA
09:00 13.6 11.2 86 24 13   100.78     LegendNANA
10:00 15.1 10.6 75 23 12   100.72     LegendNANA
11:00 17.4 10.7 65 22 10   100.66     LegendNANA
12:00 18.4 9.3 55 25 14   100.58     LegendNANA
13:00 18.4 8.0 51 25 16   100.51     LegendNANA
14:00 18.3 8.1 51 23 10   100.45     LegendNANA
15:00 18.7 8.3 51 24 15   100.45     LegendNANA
16:00 18.2 8.6 54 24 11   100.42     LegendNANA
17:00 17.4 9.3 59 23 6   100.42     LegendNANA
18:00 16.6 9.8 65 24 5   100.44     LegendNANA
19:00 12.1 10.3 89   0   100.52     LegendNANA
20:00 10.7 9.8 94 20 4   100.55     LegendNANA
21:00 10.6 10.0 96 17 3   100.58     LegendNANA
22:00 12.0 10.3 89 21 5   100.56     LegendNANA
23:00 13.2 9.9 80 24 7   100.54     LegendNANA

Notes on Data Quality.

Legend

  • E = Estimated
  • M = Missing
  • NA = Not Available
  • ‡ = Partner data that is not subject to review by the National Climate Archives
Date modified: